Weather History for Poplar Bluff, MO

Change the Weather History Date:

Monday, December 30, 2013

  Actual Average Record
Temperature  
Mean Temperature 26 °F -  
Max Temperature 30 °F 44 °F 71 °F (1951)
Min Temperature 21 °F 28 °F -1 °F (1935)
Degree Days  
Heating Degree Days 40    
Moisture  
Dew Point 12 °F    
Average Humidity 58    
Maximum Humidity 75    
Minimum Humidity 43    
Precipitation  
Precipitation 0.00 in - - ()
Sea Level Pressure  
Sea Level Pressure 30.32 in    
Wind  
Wind Speed 7 mph (NW)    
Max Wind Speed 14 mph    
Max Gust Speed -    
Visibility 10 miles    
Events      
Averages and records for this station are not official NWS values.
T = Trace of Precipitation, MM = Missing Value Source: NWS Daily Summary

Daily Weather History Graph

Daily Weather History Graph

Search for Another Location

Airport:

Trip Planner

Search our weather history database for the weather conditions in past years. The results will help you decide how hot, cold, wet, or windy it might be!

Date:

Astronomy

Dec. 30, 2013 Rise Set
Actual Time 7:13 AM CST 4:54 PM CST
Civil Twilight 6:44 AM CST 5:23 PM CST
Nautical Twilight 6:12 AM CST 5:55 PM CST
Astronomical Twilight 5:40 AM CST 6:27 PM CST
Moon 5:04 AM CST (12/30) 3:26 PM CST (12/30)
Length of Visible Light 10h 38m
Length of Day
9h 40m
Waning Crescent, 4% of the Moon is Illuminated
Dec 30
Waning Crescent
Jan 1
New
Jan 7
First Quarter
Jan 15
Full
Jan 23
Last Quarter

Hourly Weather History & Observations

Time (CST) Temp. Windchill Dew Point Humidity Pressure Visibility Wind Dir Wind Speed Gust Speed Precip Events Conditions
12:53 AM 27.0 °F 18.0 °F 15.1 °F 61% 30.27 in 10.0 mi North 9.2 mph - N/A   Clear
1:53 AM 26.1 °F 18.4 °F 15.1 °F 63% 30.28 in 10.0 mi NNW 6.9 mph - N/A   Clear
2:53 AM 25.0 °F 19.3 °F 15.1 °F 66% 30.30 in 10.0 mi North 4.6 mph - N/A   Clear
3:53 AM 24.1 °F 18.2 °F 15.1 °F 69% 30.31 in 10.0 mi North 4.6 mph - N/A   Clear
4:53 AM 24.1 °F 16.0 °F 10.9 °F 57% 30.32 in 10.0 mi NNE 6.9 mph - N/A   Partly Cloudy
5:53 AM 23.0 °F 12.4 °F 10.9 °F 60% 30.31 in 10.0 mi North 10.4 mph - N/A   Overcast
6:53 AM 23.0 °F 12.4 °F 12.0 °F 63% 30.32 in 10.0 mi North 10.4 mph - N/A   Scattered Clouds
7:53 AM 21.0 °F 8.1 °F 8.1 °F 57% 30.34 in 10.0 mi North 13.8 mph - N/A   Clear
8:53 AM 23.0 °F 12.4 °F 8.1 °F 53% 30.35 in 10.0 mi North 10.4 mph - N/A   Clear
9:53 AM 24.1 °F 14.4 °F 8.1 °F 51% 30.36 in 10.0 mi NNE 9.2 mph - N/A   Partly Cloudy
10:53 AM 26.1 °F 20.5 °F 7.0 °F 44% 30.35 in 10.0 mi ENE 4.6 mph - N/A   Overcast
11:53 AM 26.1 °F - 8.1 °F 47% 30.34 in 10.0 mi Calm Calm - N/A   Overcast
12:53 PM 27.0 °F 20.5 °F 10.0 °F 49% 30.32 in 10.0 mi SSE 5.8 mph - N/A   Overcast
1:53 PM 28.0 °F 22.8 °F 10.0 °F 47% 30.30 in 10.0 mi SW 4.6 mph - N/A   Mostly Cloudy
2:53 PM 30.9 °F - 10.9 °F 43% 30.28 in 10.0 mi Calm Calm - N/A   Partly Cloudy
3:53 PM 30.0 °F 26.5 °F 12.0 °F 47% 30.28 in 10.0 mi South 3.5 mph - N/A   Clear
4:53 PM 28.0 °F 21.7 °F 14.0 °F 56% 30.29 in 10.0 mi SSW 5.8 mph - N/A   Mostly Cloudy
5:53 PM 27.0 °F 21.6 °F 15.1 °F 61% 30.30 in 10.0 mi South 4.6 mph - N/A   Clear
6:53 PM 27.0 °F 23.0 °F 14.0 °F 58% 30.31 in 10.0 mi South 3.5 mph - N/A   Clear
7:53 PM 25.0 °F - 12.9 °F 60% 30.33 in 10.0 mi Calm Calm - N/A   Clear
8:53 PM 25.0 °F 20.7 °F 16.0 °F 69% 30.34 in 10.0 mi SW 3.5 mph - N/A   Clear
9:53 PM 25.0 °F 17.1 °F 15.1 °F 66% 30.34 in 10.0 mi SW 6.9 mph - N/A   Clear
10:53 PM 25.0 °F 18.1 °F 16.0 °F 69% 30.34 in 10.0 mi SW 5.8 mph - N/A   Clear
11:53 PM 24.1 °F 17.0 °F 17.1 °F 75% 30.35 in 10.0 mi SW 5.8 mph - N/A   Clear